Tiempo cada hora Allanton

Hoy, 31 Julio, Sábado

Tiempo Temperatura Precipitaciones Viento Presión Humedad
00:00 +15°C° 0 mm 2 mps 747 mmHg 92%
01:00 +15°C° 0 mm 2 mps 747 mmHg 92%
02:00 +15°C° 0 mm 2 mps 747 mmHg 93%
03:00 +13°C° 0 mm 3 mps 747 mmHg 93%
04:00 +13°C° 0.1 mm 3 mps 747 mmHg 93%
05:00 +13°C° 0.1 mm 3 mps 747 mmHg 94%
06:00 +13°C° 0 mm 4 mps 747 mmHg 94%
07:00 +13°C° 0.1 mm 4 mps 748 mmHg 93%
08:00 +13°C° 0.1 mm 4 mps 748 mmHg 92%
09:00 +13°C° 0.1 mm 4 mps 748 mmHg 92%
10:00 +13°C° 0.1 mm 3 mps 749 mmHg 91%
11:00 +13°C° 0.1 mm 3 mps 749 mmHg 90%
12:00 +13°C° 0.1 mm 3 mps 749 mmHg 89%
13:00 +13°C° 0.1 mm 3 mps 749 mmHg 89%
14:00 +13°C° 0.1 mm 3 mps 749 mmHg 88%
15:00 +13°C° 0.1 mm 3 mps 749 mmHg 88%
16:00 +12°C° 0.1 mm 3 mps 750 mmHg 88%
17:00 +12°C° 0.1 mm 3 mps 750 mmHg 88%
18:00 +12°C° 0.1 mm 3 mps 750 mmHg 87%
19:00 +12°C° 0.2 mm 3 mps 750 mmHg 88%
20:00 +13°C° 0.2 mm 2 mps 750 mmHg 89%
21:00 +13°C° 0.2 mm 2 mps 751 mmHg 90%
22:00 +12°C° 0.1 mm 2 mps 751 mmHg 90%
23:00 +12°C° 0.1 mm 2 mps 751 mmHg 89%

Mañana, 1 Agosto, Domingo

Tiempo Temperatura Precipitaciones Viento Presión Humedad
00:00 +11°C° 0.1 mm 3 mps 751 mmHg 89%
01:00 +11°C° 0 mm 3 mps 751 mmHg 89%
02:00 +11°C° 0 mm 3 mps 751 mmHg 88%
03:00 +11°C° 0 mm 3 mps 751 mmHg 88%
04:00 +11°C° 0 mm 3 mps 751 mmHg 86%
05:00 +11°C° 0 mm 4 mps 752 mmHg 84%
06:00 +11°C° 0 mm 4 mps 752 mmHg 82%
07:00 +12°C° 0 mm 4 mps 752 mmHg 75%
08:00 +13°C° 0 mm 4 mps 752 mmHg 68%
09:00 +14°C° 0 mm 4 mps 753 mmHg 61%
10:00 +14°C° 0 mm 4 mps 753 mmHg 59%
11:00 +15°C° 0 mm 4 mps 753 mmHg 57%
12:00 +15°C° 0 mm 4 mps 753 mmHg 55%
13:00 +15°C° 0 mm 4 mps 753 mmHg 55%
14:00 +16°C° 0 mm 3 mps 753 mmHg 55%
15:00 +16°C° 0 mm 3 mps 754 mmHg 55%
16:00 +16°C° 0 mm 3 mps 754 mmHg 59%
17:00 +16°C° 0 mm 3 mps 754 mmHg 62%
18:00 +14°C° 0 mm 3 mps 754 mmHg 65%
19:00 +14°C° 0 mm 2 mps 754 mmHg 71%
20:00 +12°C° 0 mm 2 mps 754 mmHg 78%
21:00 +11°C° 0 mm 1 mps 755 mmHg 84%
22:00 +10°C° 0 mm 1 mps 755 mmHg 86%
23:00 +10°C° 0 mm 1 mps 755 mmHg 87%

Pasado mañana, 2 Agosto, Lunes

Tiempo Temperatura Precipitaciones Viento Presión Humedad
00:00 +9°C° 0 mm 1 mps 755 mmHg 88%
01:00 +9°C° 0 mm 1 mps 755 mmHg 88%
02:00 +9°C° 0 mm 1 mps 754 mmHg 88%
03:00 +9°C° 0 mm 1 mps 754 mmHg 87%
04:00 +10°C° 0 mm 1 mps 754 mmHg 86%
05:00 +11°C° 0 mm 1 mps 754 mmHg 85%
06:00 +11°C° 0 mm 1 mps 754 mmHg 83%
07:00 +13°C° 0 mm 1 mps 754 mmHg 79%
08:00 +14°C° 0 mm 1 mps 754 mmHg 74%
09:00 +16°C° 0 mm 1 mps 754 mmHg 69%
10:00 +16°C° 0 mm 2 mps 754 mmHg 67%
11:00 +17°C° 0 mm 2 mps 754 mmHg 65%
12:00 +18°C° 0 mm 3 mps 753 mmHg 63%
13:00 +18°C° 0.2 mm 3 mps 753 mmHg 67%
14:00 +17°C° 0.2 mm 3 mps 753 mmHg 71%
15:00 +17°C° 0.2 mm 3 mps 753 mmHg 76%
16:00 +17°C° 0.2 mm 3 mps 753 mmHg 76%
17:00 +17°C° 0.2 mm 3 mps 753 mmHg 77%
18:00 +17°C° 0.2 mm 3 mps 753 mmHg 78%
19:00 +14°C° 0.1 mm 3 mps 753 mmHg 81%
20:00 +13°C° 0.1 mm 3 mps 753 mmHg 85%
21:00 +12°C° 0.1 mm 3 mps 753 mmHg 88%
22:00 +11°C° 0 mm 3 mps 753 mmHg 89%
23:00 +11°C° 0 mm 3 mps 753 mmHg 90%

3 Agosto, Martes

Tiempo Temperatura Precipitaciones Viento Presión Humedad
00:00 +10°C° 0 mm 3 mps 753 mmHg 90%
01:00 +10°C° 0 mm 3 mps 753 mmHg 90%
02:00 +10°C° 0 mm 3 mps 753 mmHg 90%
03:00 +9°C° 0 mm 3 mps 753 mmHg 90%
04:00 +10°C° 0 mm 2 mps 753 mmHg 89%
05:00 +10°C° 0 mm 2 mps 752 mmHg 88%
06:00 +12°C° 0 mm 2 mps 752 mmHg 88%
07:00 +13°C° 0 mm 2 mps 752 mmHg 82%
08:00 +15°C° 0 mm 2 mps 752 mmHg 76%
09:00 +16°C° 0 mm 2 mps 752 mmHg 70%
10:00 +17°C° 0 mm 2 mps 752 mmHg 66%
11:00 +18°C° 0 mm 2 mps 752 mmHg 61%
12:00 +19°C° 0 mm 2 mps 752 mmHg 57%
13:00 +19°C° 0 mm 2 mps 752 mmHg 58%
14:00 +19°C° 0 mm 2 mps 752 mmHg 58%
15:00 +19°C° 0 mm 3 mps 752 mmHg 58%
16:00 +18°C° 0.1 mm 3 mps 751 mmHg 63%
17:00 +18°C° 0.1 mm 3 mps 751 mmHg 68%
18:00 +18°C° 0.1 mm 3 mps 751 mmHg 74%
19:00 +16°C° 0.1 mm 3 mps 751 mmHg 79%
20:00 +14°C° 0.1 mm 3 mps 751 mmHg 83%
21:00 +13°C° 0.1 mm 3 mps 752 mmHg 88%
22:00 +13°C° 0 mm 2 mps 752 mmHg 89%
23:00 +13°C° 0 mm 2 mps 751 mmHg 90%

4 Agosto, Miércoles

Tiempo Temperatura Precipitaciones Viento Presión Humedad
00:00 +12°C° 0 mm 2 mps 751 mmHg 91%
01:00 +12°C° 0 mm 2 mps 751 mmHg 91%
02:00 +12°C° 0 mm 2 mps 751 mmHg 91%
03:00 +10°C° 0 mm 2 mps 751 mmHg 91%
04:00 +12°C° 0 mm 2 mps 751 mmHg 91%
05:00 +12°C° 0 mm 2 mps 751 mmHg 90%
06:00 +13°C° 0 mm 2 mps 751 mmHg 89%
07:00 +14°C° 0 mm 2 mps 751 mmHg 83%
08:00 +16°C° 0 mm 2 mps 751 mmHg 77%
09:00 +18°C° 0 mm 2 mps 751 mmHg 70%
10:00 +18°C° 0.1 mm 2 mps 751 mmHg 66%
11:00 +19°C° 0.1 mm 2 mps 751 mmHg 62%
12:00 +20°C° 0.1 mm 3 mps 751 mmHg 58%
13:00 +20°C° 0.1 mm 3 mps 750 mmHg 57%
14:00 +21°C° 0.1 mm 3 mps 750 mmHg 56%
15:00 +21°C° 0.1 mm 3 mps 750 mmHg 55%
16:00 +20°C° 0.2 mm 3 mps 750 mmHg 62%
17:00 +19°C° 0.2 mm 3 mps 749 mmHg 69%
18:00 +18°C° 0.2 mm 3 mps 749 mmHg 76%
19:00 +17°C° 0.1 mm 3 mps 749 mmHg 79%
20:00 +16°C° 0.1 mm 3 mps 749 mmHg 81%
21:00 +15°C° 0.1 mm 2 mps 749 mmHg 84%
22:00 +15°C° 0 mm 2 mps 749 mmHg 85%
23:00 +14°C° 0 mm 2 mps 748 mmHg 87%

5 Agosto, Jueves

Tiempo Temperatura Precipitaciones Viento Presión Humedad
00:00 +14°C° 0 mm 2 mps 748 mmHg 88%
01:00 +14°C° 0 mm 2 mps 748 mmHg 89%
02:00 +13°C° 0 mm 2 mps 747 mmHg 91%
03:00 +13°C° 0 mm 2 mps 747 mmHg 92%
04:00 +13°C° 0 mm 2 mps 747 mmHg 92%
05:00 +14°C° 0 mm 2 mps 746 mmHg 91%
06:00 +14°C° 0 mm 2 mps 746 mmHg 91%
07:00 +15°C° 0 mm 2 mps 746 mmHg 86%
08:00 +16°C° 0 mm 2 mps 746 mmHg 81%
09:00 +18°C° 0 mm 2 mps 746 mmHg 76%
10:00 +18°C° 0.2 mm 3 mps 745 mmHg 74%
11:00 +19°C° 0.2 mm 3 mps 745 mmHg 71%
12:00 +20°C° 0.2 mm 4 mps 745 mmHg 68%
13:00 +19°C° 0.4 mm 4 mps 744 mmHg 68%
14:00 +19°C° 0.4 mm 5 mps 744 mmHg 69%
15:00 +19°C° 0.4 mm 5 mps 744 mmHg 69%
16:00 +17°C° 0.2 mm 5 mps 744 mmHg 73%
17:00 +17°C° 0.2 mm 4 mps 744 mmHg 77%
18:00 +17°C° 0.2 mm 4 mps 744 mmHg 81%
19:00 +16°C° 0 mm 3 mps 744 mmHg 83%
20:00 +14°C° 0 mm 3 mps 744 mmHg 84%
21:00 +14°C° 0 mm 3 mps 744 mmHg 85%
22:00 +14°C° 0 mm 3 mps 744 mmHg 86%
23:00 +15°C° 0 mm 2 mps 744 mmHg 87%
Mostrar más

Necesitamos Su Consentimiento

Meteoprog y nuestros Proveedores de Servicios pueden almacenar y acceder a sus datos personales como cookies, identificadores de dispositivo u otras tecnologías similares de su dispositivo y procesar dichos datos para personalizar contenido y anuncios, además de ofrecer funciones de redes sociales y analizar el tráfico.

  • Almacenar y/o acceder a información en su dispositivo

    Se puede almacenar o acceder a cookies, identificadores de dispositivo u otra información de su dispositivo para los fines anteriormente indicados.

  • Anuncios y contenido personalizados, medición de anuncios y contenido, percepciones del público, y desarrollo de productos

    Los anuncios y el contenido pueden personalizarse en base a su perfil. Se pueden añadir más datos para personalizar mejor los anuncios y contenidos. Se puede medir el rendimiento de los anuncios y contenidos. Se puede obtener la percepción sobre el público que ha visto los anuncios y contenidos. Dichos datos pueden usarse para desarrollar o mejorar la experiencia del usuario, sistemas y software.

Al hacer clic en ‘Estoy De Acuerdo’ usted permitirá el uso de las cookies, identificadores de dispositivo, balizas web u otras tecnologías similares indicadas. Su configuración puede cambiarse desde el navegador de su dispositivo.

Para ciertos fines, los intereses legítimos pueden ser considerados por encima del consentimiento. Puede leer más sobre ello en nuestra Política de Privacidad y Cookies.